Regional Weather Roundup
Issued by NWS Grand Forks, ND

Home | Current Version | Previous Version | Graphics & Text | Print | Product List | Glossary On
Versions: 1 2 3 4 5 6 7 8 9 10 11 12 13 14 15 16 17 18 19 20 21 22 23 24 25 26 27 28 29 30 31 32 33 34 35 36 37 38 39 40 41 42 43 44 45 46 47 48 49 50
000
ASUS43 KFGF 011331
RWRFGF
PRAIRIE TO PINES  WEATHER ROUNDUP
NATIONAL WEATHER SERVICE EASTERN NORTH DAKOTA/GRAND FORKS ND
800 AM CDT TUE SEP 01 2015

 **SATELLITE DATA USED TO AUGMENT SKY COVER AT AUTOMATED STATIONS**
 *****  WEATHER ACROSS EASTERN NORTH DAKOTA  *****

CITY           SKY/WX    TMP DP  RH WIND       PRES   REMARKS
GRAND FORKS    MOSUNNY   56  52  86 CALM      29.86R
GRAND FRKS AFB SUNNY     58  51  79 SW5       29.87R
GRAND FRKS NWS   N/A     55 N/A N/A W3          N/A
DEVILS LAKE    SUNNY     64  52  63 S6        29.86R
FARGO          PTSUNNY   58  56  93 SE3       29.89S
WAHPETON ARPT  PTSUNNY   59  55  88 E3        29.90
$$

 ***** WEATHER ACROSS CENTRAL AND WESTERN NORTH DAKOTA  *****

CITY           SKY/WX    TMP DP  RH WIND       PRES   REMARKS
BISMARCK       CLEAR     54  51  90 NE5       29.89R
MINOT          CLEAR     59  47  64 SW10      29.83S
JAMESTOWN      SUNNY     57  54  89 S3        29.88S
MINOT AFB      CLEAR     56  51  84 CALM      29.82S
GARRISON         N/A     55  50  83 CALM      29.87R
WILLISTON      CLEAR     50  44  80 CALM      29.83S
DICKINSON      CLEAR     57  53  86 S8        29.86R
HETTINGER      CLEAR     52  50  93 SE3       29.89S
$$

 *****  OTHER AIRPORT OBSERVATIONS IN OUR AREA  *****

CITY           SKY/WX    TMP DP  RH WIND       PRES   REMARKS
WALHALLA       FAIR      63  50  63 MISG      29.84S
GRAFTON AIRPOR FAIR      55  54  94 SE5       29.86S FOG
VALLEY CITY AR FAIR      57  57 100 S5        29.90R
CANDO          FAIR      54  50  87 SE5       29.86S
CAVALIER APRT  FAIR      59  50  72 S3        29.84S
GWINNER          N/A     63  63 100 CALM      29.90S
SHEYENNE NWR     N/A     55  55  99 NE2       29.95S
ROLLA          FAIR      55  50  82 SW6       29.87R
 ***** THE ABOVE OBSERVATIONS ARE NON NWS ARE NOT QUALITY
       CONTROLLED AND MAY MIS-REPORT RAIN FOR SNOW...
$$

  *****  WEATHER ACROSS NORTHERN MINNESOTA  *****

CITY           SKY/WX    TMP DP  RH WIND       PRES   REMARKS
FLAG ISLAND    SUNNY     61  54  77 SW8       29.85S
WARROAD        MOSUNNY   57  54  88 SW6       29.88S
ROSEAU         SUNNY     57  54  88 S3        29.87S
HALLOCK        SUNNY     55  52  88 S8        29.85S
THF RVR FALLS  MOSUNNY  N/A N/A N/A S5        29.89S
BAUDETTE       MOSUNNY   56  52  86 S5        29.88R
WASKISH        MOSUNNY   57  57 100 CALM      29.91R
CROOKSTON      MOSUNNY   57  55  94 S7        29.89S
STEPHEN NDAWN    N/A     57  55  94 SE5         N/A
GREENBUSH NDAW   N/A     57  54  88 S3          N/A
$$
  *****  WEATHER ACROSS CENTRAL AND WEST MINNESOTA  *****

CITY           SKY/WX    TMP DP  RH WIND       PRES   REMARKS
FOSSTON        SUNNY     57  57 100 S5        29.92S
BEMIDJI        MOSUNNY   58  58 100 CALM      29.92S
PARK RAPIDS    PTSUNNY   57  56  96 CALM      29.93S
ELBOW LAKE     FAIR      68  65  90 E3        29.91S
WADENA         PTSUNNY   63  63 100 CALM      29.93S FOG
DETROIT LAKES  MOSUNNY   61  61 100 CALM      29.93S
MOORHEAD       LGT RAIN  57  57 100 CALM      29.90S VSB 1/2
FERGUS FALLS   PTSUNNY   64  64 100 CALM      29.90S
MORRIS MN      CLOUDY    70  66  88 E6        29.90S
STAPLES        CLOUDY    63  63 100 CALM      29.93S FOG
$$
  *****  WEATHER ELSEWHERE ACROSS MINNESOTA  *****

CITY           SKY/WX    TMP DP  RH WIND       PRES   REMARKS
DULUTH         MOSUNNY   70  67  90 VRB3      29.92R FOG
INTRNTL FALLS  PTSUNNY   55  54  96 CALM      29.90S FOG
ELY            CLOUDY    64  64 100 CALM      29.92S FOG
CLOQUET        MOSUNNY   70  66  88 CALM      29.93R FOG
WHEATON        PTSUNNY   61  61 100 E3        29.91F FOG
BRAINERD       CLOUDY    67  65  93 CALM      29.93S FOG
HIBBING        PTSUNNY   65  63  93 CALM      29.92S
ALEXANDRIA     CLOUDY    67  64  90 E6        29.94R
SAINT CLOUD    CLOUDY    69  67  93 CALM      29.92R FOG
MINNEAPOLIS    PTSUNNY   71  66  84 SE5       29.93R
$$

  *****  WEATHER ACROSS SOUTH DAKOTA  *****

CITY           SKY/WX    TMP DP  RH WIND       PRES   REMARKS
SIOUX FALLS    CLOUDY    69  66  90 SE5       29.89S FOG
BROOKINGS      CLOUDY    70  64  83 E7        29.92S
WATERTOWN      CLOUDY    67  63  87 E6        29.91R
HURON          PTSUNNY   64  63  96 CALM      29.86S FOG
SISSETON         N/A     62  61  96 SW3       29.89S
ABERDEEN       SUNNY     60  59  96 E6        29.88S
MITCHELL       CLOUDY    66  65  96 CALM      29.88R
PIERRE         PTCLDY    59  59 100 NE7       29.85S
MOBRIDGE       CLEAR     61  60  97 E6        29.86S
RAPID CITY     LGT RAIN  53  52  96 N3        29.88S
$$

  *****  SOME WEATHER IN NEARBY STATES *****

CITY           SKY/WX    TMP DP  RH WIND       PRES   REMARKS
GLASGOW MT     CLEAR     53  42  66 E10       29.79S
GREAT FALLS MT MOCLDY    61  40  45 S12       29.83S
CHEYENNE WY    CLEAR     54  43  66 W10       30.13S
SCOTTSBLUFF NE PTCLDY    56  51  84 W6        29.99R
OMAHA NE       MOSUNNY   72  68  87 S13       29.95R
DES MOINES IA  MOSUNNY   72  68  87 S9        29.98R
DAVENPORT IA   SUNNY     74  70  87 S8        30.05R
CHICAGO IL     MOSUNNY   73  71  93 S3        30.05S
EAU CLAIRE WI  PTSUNNY   70  69  97 S8        29.95S FOG
LA CROSSE WI   MOSUNNY   71  70  96 SE6       29.97R FOG
$$

  *****  SOME NATIONAL WEATHER *****

CITY           SKY/WX    TMP DP  RH WIND       PRES   REMARKS
LA GUARDIA NY  SUNNY     79  65  62 NE8       30.04R
RALEIGH NC     MOSUNNY   73  70  90 CALM      30.11S
ATLANTA GA     MOSUNNY   75  68  78 SE3       30.16R
NEW ORLEANS LA PTSUNNY   81  70  69 CALM      30.05R
OKLAHOMA CITY  SUNNY     70  65  84 S7        30.03S
ALBUQUERQUE NM PTCLDY    66  48  52 SE6       30.19R
SALT LAKE CITY MOCLDY    71  46  40 SE9       29.97R
LOS ANGELES CA CLOUDY    70  60  70 E6        29.90S
BOISE ID       CLEAR     59  37  44 SE7       29.90S
SEATTLE WA     MOCLDY    63  53  70 S13       29.88F
$$

*** WEATHER ACROSS MANITOBA...SASKATCHEWAN AND ONTARIO ***
                ***ONTARIO***

CITY           SKY/WX    TMP DP  RH WIND       PRES   REMARKS
GERALDTON      MOSUNNY   68  64  88 W6        29.87R
THUNDER BAY    PTSUNNY   64  63  94 CALM      29.88R
SIOUX LOOKOUT  MOSUNNY   63  61  94 SW7       29.86S
TORONTO        SUNNY     70  63  78 W3        30.09R
BIG TROUT LK   MOSUNNY   61  57  88 W9        29.68R
PICKLE LAKE    MOSUNNY   64  57  77 SW8       29.80S
DRYDEN         SUNNY     61  57  88 SW8       29.86S
KENORA         MOSUNNY   61  55  82 SW7       29.86R
$$
                *** MANITOBA***

CITY           SKY/WX    TMP DP  RH WIND       PRES   REMARKS
BRANDON        PTCLDY    52  48  87 VRB2      29.83R
DAUPHIN        CLEAR     59  48  67 SW7       29.74R
ISLAND LAKE    PTSUNNY   59  57  94 W5        29.68R
PILOT MOUND      N/A     52  46  82 S6          N/A
THE PAS        PTCLDY    55  54  94 CALM      29.67R
THOMPSON       DRZL/FOG  52  52 100 CALM      29.68R VSB 1/8
WINNIPEG       MOSUNNY   57  48  72 SW5       29.83R
LYNN LAKE      FOG       45  45 100 MISG      29.65R VSB 1/4
CHURCHILL      CLOUDY    46  45  93 E7        29.71R
$$
                ***SASKATCHEWAN***

CITY           SKY/WX    TMP DP  RH WIND       PRES   REMARKS
ESTEVAN        PTCLDY    48  43  81 NW5       29.82S
KINDERSLEY     PTCLDY    50  41  71 S15       29.62R
LLOYDMINSTER   PTCLDY    50  45  81 S9        29.52F
PRINCE ALBERT  MOCLDY    52  50  93 VRB2      29.61F
REGINA         MOCLDY    52  46  82 SW6       29.76S
YORKTON        CLEAR     54  48  82 SW12      29.73R
N. BATTLEFORD  CLEAR     50  45  81 SE7       29.59R
LA RONGE       MOCLDY    50  46  87 N14       29.61
SASKATOON      PTCLDY    54  45  71 S15       29.65R
SWIFT CURRENT  CLEAR     54  39  58 S14       29.71F
$$
NOTE: THESE ARE AUTOMATED STATIONS WITH LIMITED QUALITY CONTROL
      "FAIR" INDICATES FEW OR NO CLOUDS BELOW 12,000 FEET WITH NO
      SIGNIFICANT WEATHER AND/OR OBSTRUCTIONS TO VISIBILITY.
      SKY/WX - SKY CONDITION AND SIGNIFICANT WEATHER.
      TMP - AIR TEMPERATURE.    DP   - DEWPOINT TEMPERATURE.
      RH  - RELATIVE HUMIDITY.  PRES - PRESSURE.
      HX  - HEAT INDEX.         WCI  - WIND CHILL INDEX.
$



USA.gov is the U.S. government's official web portal to all federal, state and local government web resources and services.